Location: Mat�lon
(46.2791°N, 7.1028°E)
Time: 02:18:59
(UTC+00:00)

CZ-2D R/B - Pass Details

Date: 18 September 2020
Orbit: 520 x 539 km, 97.4° (Epoch: 29 October)

Event Time Altitude Azimuth Distance (km) Brightness Sun altitude
Rises 18:14:42 0° 180° (S) 2,681 6.7 -7.4°
Reaches altitude 10° 18:16:52 10° 186° (S) 1,795 5.9 -7.8°
Maximum altitude 18:20:37 47° 261° (W) 719 4.4 -8.4°
Drops below altitude 10° 18:24:24 10° 336° (NNW) 1,810 6.5 -9.0°
Sets 18:26:36 0° 343° (NNW) 2,705 7.3 -9.4°
